星链-5834 (STARLINK-5834 )

导读

STARLINK-5834是美国SpaceX公司星链星座的成员,于2023年6月22日发射入轨,属于星链第二代星座的低轨通信卫星。星链项目旨在构建覆盖全球的低轨卫星互联网,为偏远地区等网络薄弱区域提供高速宽带服务。STARLINK-5834具备激光星间链路能力,可实现卫星间直接通信,助力星链构建高效全球网络,是星链大规模组网的重要一环,目前该卫星已加入星链在轨运行网络,服务全球卫星互联网接入。

Basic Information
目录编号:
57071
目录名称:
STARLINK-5834
国际标识:
2023-088Z
轨道中心:
EARTH
卫星名称:
星链-5834
卫星全名:
星链-5834 (STARLINK-5834 )
卫星状态:
在轨 (已飞行1170 天)
发射日期:
2023-06-22 UTC
国别 :
美国 (US)
星等 :
--
Orbit Information
数据来源 国际轨道数据 AOE轨道数据
星历时间 2026-09-04T02:42:32+0800
12小时前
查看轨道信息
2026-08-31T12:00:00+0800
4天前
查看轨道信息
半长轴 6861.182km 6861.235km
偏心率 0.0001295 0.0001613
轨道倾角 43.002° 43.002°
近地点辐角 256.245° 255.647°
升交点赤经 170.652° 191.060°
平近点角 103.826° 12.894°
近地点 482.156km 481.991km
远地点 483.934km 484.205km
周期 94.267分钟 94.268分钟
每日圈数 15.275817 15.275639
Detailed Information
固有亮度:
5
最大亮度:
2.4
卫星平台:
Starlink v1.5
覆盖范围:
全球
运营商:
太空探索技术公司
运营商所在国:
美国
制造商(研发单位):
太空探索技术公司
制造商所在国:
美国
使用方式:
暂无
Satellite Introduction
星链(Starlink)计划是由太空探索技术公司(SpaceX)提出的一个巨型低轨卫星互联网星座项目,计划在2019年至2024年间在太空搭建由约1.2万颗卫星组成的“星链”网络,其中1584颗将部署在地球上空550千米处的近地轨道,并从2020年开始工作。该卫星仍在工作。
2D Orbit Map
3D Orbit Map
Orbit Altitude Analysis Chart
Orbit Inclination Analysis Chart
Orbit Comprehensive Analysis Chart
View Comprehensive Chart
Conjunction Data List
Event ID Objects TCA Miss Dist (km) Collision Risk Probability Collision Risk Index (CRI) Action
CDM_260904-190905-707106-455823
QUICK3 (64558)
2026-09-04T
19:09:35+0000
0.868 km
远距离
4.246673E-5 中风险 0.68
CDM_260827-184405-276005-707122
2026-08-27T
18:44:25+0000
1.628 km
极远距离
5.044081E-6 低风险 0.49
CDM_260904-182205-707106-455823
QUICK3 (64558)
2026-09-04T
18:22:28+0000
2.554 km
极远距离
1.649853E-6 低风险 0.39